EW5624 Weather Reports


Display with metric or nautical units.
time (UTC)temp
F
wind
direction
speed
MPH
gust
MPH
rain 1hr
in
rain 24hr
in
rain mn
in
humidity
%
barometer
mb
20200401051510 30 127 0.0 0.0 0.00 0.00 0.00 89 1017.2
20200401044517 32 127 0.0 0.0 0.00 0.00 0.00 86 1017.1
20200401041511 33 127 0.0 0.0 0.00 0.00 0.00 84 1017.1
20200401034518 35 127 0.0 0.0 0.00 0.00 0.00 79 1017.0
20200401031516 38 127 0.0 0.0 0.00 0.00 0.00 75 1017.0
20200401024531 40 127 1.0 4.0 0.00 0.00 0.00 71 1017.1
20200401021510 39 135 0.0 2.0 0.00 0.00 0.00 70 1016.9
20200401014506 41 135 0.0 0.0 0.00 0.00 0.00 68 1016.6
20200401011525 42 135 0.0 4.0 0.00 0.00 0.00 65 1016.4
20200401004508 44 134 0.0 3.0 0.00 0.00 0.00 61 1016.3
20200401001506 47 130 2.0 8.0 0.00 0.00 0.00 56 1016.3
20200331234504 49 130 2.0 4.0 0.00 0.00 0.00 52 1016.4
20200331231510 50 88 0.0 11.0 0.00 0.00 0.00 50 1016.1
20200331224526 50 84 3.0 9.0 0.00 0.00 0.00 49 1016.3
20200331221509 51 133 2.0 7.0 0.00 0.00 0.00 48 1016.5
20200331214517 51 83 4.0 10.0 0.00 0.00 0.00 49 1016.5
20200331211511 51 76 5.0 13.0 0.00 0.00 0.00 48 1016.6
20200331204504 50 75 4.0 12.0 0.00 0.00 0.00 49 1016.9
20200331201509 49 124 2.0 11.0 0.00 0.00 0.00 50 1017.3
20200331194514 48 69 3.0 9.0 0.00 0.00 0.00 53 1017.7
20200331191519 49 79 2.0 9.0 0.00 0.00 0.00 54 1017.8
20200331184506 48 126 4.0 12.0 0.00 0.00 0.00 53 1018.3
20200331181504 47 86 3.0 8.0 0.00 0.00 0.00 54 1018.4
20200331174534 47 77 4.0 12.0 0.00 0.00 0.00 56 1018.7
20200331171515 45 94 4.0 13.0 0.00 0.00 0.00 56 1018.9
20200331164511 45 88 5.0 11.0 0.00 0.00 0.00 57 1019.0
20200331161511 44 34 3.0 9.0 0.00 0.00 0.00 59 1019.3
20200331151505 41 59 5.0 11.0 0.00 0.00 0.00 59 1020.1
20200331144529 38 53 5.0 10.0 0.00 0.00 0.00 65 1020.4
20200331141505 37 86 4.0 11.0 0.00 0.00 0.00 67 1020.4
20200331133007 34 63 4.0 11.0 0.00 0.00 0.00 77 1020.7
20200331130005 29 51 3.0 8.0 0.00 0.00 0.00 91 1020.7
20200331123004 27 72 0.0 2.0 0.00 0.00 0.00 89 1020.9
20200331120010 27 72 0.0 0.0 0.00 0.00 0.00 87 1020.9
20200331113014 28 72 0.0 0.0 0.00 0.00 0.00 85 1021.1
20200331110004 29 72 0.0 0.0 0.00 0.00 0.00 84 1021.2
20200331103017 29 72 0.0 0.0 0.00 0.00 0.00 81 1021.2
20200331100003 31 72 0.0 1.0 0.00 0.00 0.00 79 1021.1
20200331093022 33 72 0.0 0.0 0.00 0.00 0.00 76 1021.2
20200331090012 34 72 1.0 3.0 0.00 0.00 0.00 75 1021.3
20200331081528 35 82 2.0 7.0 0.00 0.00 0.00 74 1021.6
20200331074515 36 78 3.0 6.0 0.00 0.00 0.00 73 1021.9
20200331064518 37 86 3.0 8.0 0.00 0.00 0.00 70 1022.1
20200331061504 38 72 1.0 4.0 0.00 0.00 0.00 69 1022.3